Regional Weather Roundup
Issued by NWS

Home | Current Version | Previous Version | Text Only | Print | Product List | Glossary Off
Versions: 1 2 3 4 5 6 7 8 9 10 11 12 13 14 15 16 17 18 19 20 21 22 23 24 25 26 27 28 29 30 31 32 33 34 35 36 37 38 39 40 41 42 43 44 45 46 47 48 49 50

000
ASUS43 KMPX 310810
RWRMN
WEATHER ROUNDUP FOR MINNESOTA
NATIONAL WEATHER SERVICE TWIN CITIES/CHANHASSEN MN
300 AM CDT TUE MAY 31 2016


NOTE: "FAIR" INDICATES FEW OR NO CLOUDS BELOW 12,000 FEET WITH NO
SIGNIFICANT WEATHER AND/OR OBSTRUCTIONS TO VISIBILITY. N/A MEANS
CURRENT SKY AND/OR WEATHER CONDITIONS ARE NOT AVAILABLE.

MNZ060>063-068>070-310900-
   Twin Cities Metro

CITY           SKY/WX    TMP DP  RH WIND       PRES   REMARKS
TWIN CITIES    CLOUDY    68  57  68 SE10      29.85F
ST PAUL        CLOUDY    68  57  68 SE15      29.85F
CRYSTAL        MOCLDY    69  55  60 SE12      29.83F
BLAINE         LGT RAIN  70  57  64 S10       29.85S
EDEN PRAIRIE   CLOUDY    68  56  65 SE9       29.83F
SOUTH ST PAUL  CLOUDY    68  56  66 SE6       29.85F
LAKE ELMO      FAIR      68  55  64 SE8       29.87F
$$
MNZ001>005-007-008-013>017-022>024-027-028-310900-
   Northwest Minnesota

CITY           SKY/WX    TMP DP  RH WIND       PRES   REMARKS
BEMIDJI        CLOUDY    60  54  80 S9        29.83R
HALLOCK        RAIN      59  55  88 E17G25    29.75F
ROSEAU         LGT RAIN  55  50  82 E10       29.87R
WARROAD        LGT RAIN  57  54  88 E14G22    29.87F
THIEF RVR FALL CLOUDY    57  54  88 E20G28    29.75F
CROOKSTON      DRIZZLE   59  57  94 E20G31    29.70S
FOSSTON        RAIN      57  55  94 E9        29.78F
DETROIT LAKES  RAIN      59  57  94 E7        29.79F
MOORHEAD       DRIZZLE   63  59  88 E3        29.70S
PARK RAPIDS    LGT RAIN  61  58  90 SW8       29.82S FOG
MAHNOMEN       LGT RAIN  60  58  94 SE13      29.76F
$$
MNZ006-009>011-018-025>026-310900-
   North Central Minnesota

CITY           SKY/WX    TMP DP  RH WIND       PRES   REMARKS
BAUDETTE       CLOUDY    57  47  69 E15G23    29.87F
FLAG ISLAND    CLOUDY    57  46  67 E10G22    29.89F
INTL FALLS     CLOUDY    55  46  71 E14G22    29.94S
WASKISH        CLOUDY    61  52  72 E14G20    29.85S
BIG FORK       CLOUDY    59  46  63 E12G21    29.90S
LONGVILLE      LGT RAIN  59  57  94 E7        29.83F
GRAND RAPIDS   CLOUDY    57  46  66 E9G20     29.91S
CRANE LAKE     CLOUDY    54  46  76 CALM      30.00R
ORR            MOCLDY    55  45  67 SE9       29.94R
COOK           CLOUDY    54  46  76 E6        29.97S
WALKER         PTSUNNY   62  55  80 E9        29.80F
$$
MNZ012-019>021-037-310900-
   Northeast Minnesota

CITY           SKY/WX    TMP DP  RH WIND       PRES   REMARKS
DULUTH         CLOUDY    48  42  80 E28G40    29.97F
ELY            CLOUDY    52  43  71 E13G18    30.02R
HIBBING        CLOUDY    51  44  77 E12       29.95F
EVELETH        PTCLDY    52  43  71 E13G21    29.98F
DULUTH HARBOR  CLOUDY    46  43  87 NE26G35   30.00F
TWO HARBORS    PTCLDY    52  45  76 NE18G28   30.02R
SILVER BAY     CLOUDY    46  43  87 NE12G18   30.04S
GRAND MARAIS     N/A     43  39  86 NE12      30.09S
G MARAIS ARPRT PTCLDY    45  36  70 NE14      30.08F
$$
MNZ029>031-032-039>041-046>048-054>057-064-310900-
   West Central Minnesota

CITY           SKY/WX    TMP DP  RH WIND       PRES   REMARKS
FERGUS FALLS   CLOUDY    61  61 100 E8        29.69F
WHEATON        CLOUDY    61  59  94 E10       29.73F
MORRIS         LGT RAIN  61  59  94 E20       29.76F
ALEXANDRIA     RAIN      60  57  89 N3        29.84R FOG
ELBOW LAKE     LGT RAIN  59  58  97 SE18      29.73F
WADENA         RAIN      59  57  94 CALM      29.82F
GLENWOOD       CLOUDY    61  57  88 W8        29.83R
APPLETON       LGT RAIN  63  59  88 E18G24    29.78F
ORTONVILLE     CLOUDY    61  57  88 E6        29.75F
MADISON        LGT RAIN  63  61  94 SE13      29.79F
WILLMAR        RAIN      64  63  94 W14G24    29.87R
$$
MNZ033>034-036-042>043-049>051-058-059-310900-
   Central Minnesota

CITY           SKY/WX    TMP DP  RH WIND       PRES   REMARKS
ST CLOUD       CLOUDY    68  56  65 S12       29.82S
SAUK CENTRE    CLOUDY    64  60  89 SW16      29.82R
PAYNESVILLE    LGT RAIN  65  59  81 SW9       29.85R
AITKIN         MIX PCPN  59  52  77 NW5       29.88R
PINE RIVER     CLOUDY    61  57  88 E16       29.85S
BRAINERD       CLOUDY    61  57  87 E7        29.84R
STAPLES        CLOUDY    63  55  77 SE6       29.81R
LONG PRAIRIE   CLOUDY    64  59  82 S6        29.83R
LITTLE FALLS   CLOUDY    66  54  63 SE10      29.81R
LITCHFIELD     RAIN      68  57  68 SW5       29.84R
BUFFALO        CLOUDY    67  55  63 SE5       29.84S
MAPLE LAKE     HVY RAIN  65  60  82 S6        29.85R
HUTCHINSON     CLOUDY    67  58  73 S6        29.85R
$$
MNZ037-044-045-052-053-310900-
   East Central Minnesota

CITY           SKY/WX    TMP DP  RH WIND       PRES   REMARKS
PRINCETON      CLOUDY    68  57  68 SE7       29.84F HAZE
MORA           CLOUDY    64  55  72 E3        29.87S
CAMBRIDGE      CLOUDY    72  55  56 SE8       29.83S
RUSH CITY      CLOUDY    67  55  63 SE6       29.86F
MOOSE LAKE     CLOUDY    50  45  81 E9        29.92S
HINCKLEY       CLOUDY    61  55  82 NE7       29.89R
CLOQUET        MOCLDY    50  43  76 E20G25    29.95F
MCGREGOR       CLOUDY    55  46  71 E15G21    29.91R
$$
MNZ071>073-080-081-089-090-097-098-310900-
   Southwest Minnesota

CITY           SKY/WX    TMP DP  RH WIND       PRES   REMARKS
MONTEVIDEO     LGT RAIN  61  61 100 SE8       29.86F
GRANITE FALLS  RAIN      65  62  90 SE14      29.85F
CANBY          LGT RAIN  65  63  92 E8        29.82R
MARSHALL       RAIN      62  60  93 SE15      29.83F
REDWOOD FALLS  HVY RAIN  63  59  87 SW10G24   29.85R FOG
OLIVIA         LGT RAIN  68  63  83 SW14G22   29.85R
PIPESTONE      CLOUDY    63  59  88 E5        29.81F
WINDOM         CLOUDY    64  57  77 SW17G24   29.86R
WORTHINGTON    RAIN      62  59  90 SW12      29.86F
JACKSON        CLOUDY    64  55  72 S16G25    29.84S
TRACY          LGT RAIN  62  61  96 E3        29.85F
SLAYTON        LGT RAIN  62  62  99 W3        29.85S
$$
MNZ065>067-074>077-082>085-091>093-310900-
   South Central Minnesota

CITY           SKY/WX    TMP DP  RH WIND       PRES   REMARKS
MANKATO        CLOUDY    70  54  56 S10       29.83F
NEW ULM        LGT RAIN  66  57  72 S5        29.83F
ST JAMES       TSTM      63  54  72 SE22G28   29.83F
FAIRMONT       CLOUDY    64  55  72 SE13      29.85F
GLENCOE        CLOUDY    68  59  73 SE5       29.84R
FARIBAULT      CLOUDY    66  57  72 S5        29.85F
OWATONNA       LGT RAIN  66  55  68 SE10      29.85S
WASECA         CLOUDY    64  55  72 SE10      29.86F
ALBERT LEA     CLOUDY    66  55  68 S12G17    29.87F
$$
MNZ078>079-086>088-094>096-310900-
   Southeast Minnesota

CITY           SKY/WX    TMP DP  RH WIND       PRES   REMARKS
ROCHESTER      CLOUDY    62  57  83 SE9       29.88F
RED WING       MOCLDY    70  55  60 SE13      29.86F
STANTON        CLOUDY    68  57  67 E7        29.83F
DODGE CENTER   CLOUDY    64  57  77 SE9       29.87S
WINONA         CLOUDY    70  55  60 E8        29.88F
AUSTIN         PTCLDY    63  57  82 S9        29.87F
PRESTON        CLOUDY    61  54  78 SE8       29.91R
$$
ABBREVIATIONS USED IN REMARKS
   TC - TEMPERATURES IN CELSIUS
  WCI - WIND CHILL INDEX
   HX - HEAT INDEX
  VSB - VISIBILITY
$$




USA.gov is the U.S. government's official web portal to all federal, state and local government web resources and services.